N52TG KMSY-KTIS

Flight info

Callsign N52TG
Flight time N/A
Altitude 51000
Route MCB WINAP Q40 NIOLA
Aircraft C750/M-SDFRG/C

Departure

Time 2026-04-28 10:13
Airport Louis Armstrong New Orleans International Airport (KMSY)

Arrival

Time N/A
Airport KTIS
Time Latitude Longitude Altitude Speed Heading
2026-04-28 09:42 29.99600 -90.26224 9 ft 0 kts 17°
2026-04-28 10:06 29.99611 -90.26215 9 ft 6 kts 45°
2026-04-28 10:06 29.99663 -90.26250 9 ft 13 kts 287°
2026-04-28 10:07 29.99674 -90.26356 9 ft 13 kts 268°
2026-04-28 10:07 29.99657 -90.26405 9 ft 1 kts 231°
2026-04-28 10:07 29.99655 -90.26430 9 ft 7 kts 274°
2026-04-28 10:07 29.99651 -90.26543 9 ft 17 kts 231°
2026-04-28 10:08 29.99542 -90.26605 9 ft 15 kts 230°
2026-04-28 10:08 29.99540 -90.26723 9 ft 15 kts 284°
2026-04-28 10:08 29.99570 -90.26849 9 ft 17 kts 291°
2026-04-28 10:08 29.99604 -90.26986 9 ft 18 kts 285°
2026-04-28 10:09 29.99639 -90.27131 9 ft 19 kts 285°
2026-04-28 10:09 29.99674 -90.27280 9 ft 19 kts 285°
2026-04-28 10:09 29.99710 -90.27426 9 ft 19 kts 285°
2026-04-28 10:09 29.99746 -90.27576 9 ft 19 kts 286°
2026-04-28 10:10 29.99782 -90.27724 9 ft 19 kts 285°
2026-04-28 10:10 29.99818 -90.27873 9 ft 19 kts 284°
2026-04-28 10:10 29.99853 -90.28019 9 ft 18 kts 285°
2026-04-28 10:10 29.99844 -90.28099 9 ft 9 kts 209°
2026-04-28 10:11 29.99782 -90.28122 9 ft 9 kts 196°
2026-04-28 10:11 29.99765 -90.28127 9 ft 0 kts 195°
2026-04-28 10:11 29.99751 -90.28132 9 ft 7 kts 195°
2026-04-28 10:12 29.99667 -90.28156 9 ft 11 kts 173°
2026-04-28 10:12 29.99657 -90.28146 9 ft 0 kts 108°
2026-04-28 10:12 29.99639 -90.28074 9 ft 49 kts 107°
2026-04-28 10:12 29.99443 -90.27269 14 ft 153 kts 107°
2026-04-28 10:13 29.99137 -90.25895 552 ft 190 kts 105°
2026-04-28 10:13 29.98891 -90.24474 1902 ft 190 kts 105°
2026-04-28 10:13 29.98678 -90.23044 3197 ft 189 kts 104°
2026-04-28 10:13 29.98442 -90.21503 3922 ft 218 kts 104°
2026-04-28 10:14 29.98168 -90.19748 3982 ft 228 kts 98°
2026-04-28 10:14 29.98587 -90.17940 3998 ft 242 kts 56°
2026-04-28 10:14 29.99997 -90.16822 4275 ft 269 kts 14°
2026-04-28 10:14 30.01894 -90.16865 5386 ft 277 kts 351°
2026-04-28 10:15 30.03767 -90.17024 6754 ft 274 kts 354°
2026-04-28 10:15 30.05647 -90.17168 7913 ft 278 kts 354°
2026-04-28 10:15 30.07575 -90.17306 9009 ft 282 kts 354°
2026-04-28 10:15 30.09513 -90.17438 10017 ft 287 kts 354°
2026-04-28 10:16 30.11543 -90.17574 10931 ft 296 kts 354°
2026-04-28 10:16 30.13633 -90.17720 11636 ft 312 kts 353°
2026-04-28 10:16 30.15842 -90.17873 12334 ft 331 kts 354°
2026-04-28 10:16 30.18205 -90.18035 13068 ft 349 kts 353°
2026-04-28 10:17 30.20681 -90.18206 13787 ft 364 kts 353°
2026-04-28 10:17 30.23231 -90.18378 14772 ft 370 kts 353°
2026-04-28 10:17 30.25790 -90.18552 15808 ft 373 kts 353°
2026-04-28 10:17 30.28380 -90.18731 16758 ft 378 kts 353°
2026-04-28 10:18 30.31040 -90.18913 17704 ft 381 kts 353°
2026-04-28 10:18 30.33660 -90.19098 18556 ft 385 kts 353°
2026-04-28 10:18 30.36340 -90.19278 19370 ft 389 kts 353°
2026-04-28 10:18 30.39056 -90.19466 20149 ft 394 kts 353°
2026-04-28 10:19 30.41817 -90.19658 20918 ft 397 kts 352°
2026-04-28 10:19 30.44569 -90.19844 21640 ft 402 kts 352°
2026-04-28 10:19 30.47392 -90.20044 22336 ft 406 kts 352°
2026-04-28 10:19 30.50220 -90.20235 23031 ft 409 kts 352°
2026-04-28 10:20 30.53047 -90.20432 23728 ft 412 kts 352°
2026-04-28 10:20 30.55923 -90.20625 24444 ft 414 kts 352°
2026-04-28 10:20 30.58813 -90.20825 25090 ft 417 kts 352°
2026-04-28 10:20 30.61687 -90.21026 25771 ft 418 kts 352°
2026-04-28 10:21 30.64617 -90.21229 26335 ft 422 kts 351°
2026-04-28 10:21 30.67536 -90.21431 26890 ft 425 kts 351°
2026-04-28 10:21 30.70493 -90.21636 27509 ft 426 kts 351°
2026-04-28 10:21 30.73474 -90.21843 28072 ft 429 kts 351°
2026-04-28 10:22 30.76446 -90.22050 28645 ft 430 kts 351°
2026-04-28 10:22 30.79447 -90.22255 29128 ft 434 kts 351°
2026-04-28 10:22 30.82500 -90.22470 29569 ft 438 kts 351°
2026-04-28 10:22 30.85554 -90.22680 29951 ft 443 kts 351°
2026-04-28 10:23 30.88675 -90.22901 30386 ft 446 kts 351°
2026-04-28 10:23 30.91807 -90.23118 30894 ft 447 kts 351°
2026-04-28 10:23 30.94927 -90.23334 31443 ft 447 kts 350°
2026-04-28 10:23 30.98032 -90.23550 32115 ft 443 kts 350°
2026-04-28 10:24 31.01111 -90.23761 32741 ft 441 kts 350°
2026-04-28 10:24 31.04145 -90.23975 33368 ft 438 kts 350°
2026-04-28 10:24 31.07159 -90.24184 33995 ft 434 kts 349°
2026-04-28 10:24 31.10191 -90.24397 34612 ft 431 kts 349°
2026-04-28 10:25 31.13187 -90.24607 35100 ft 431 kts 349°
2026-04-28 10:25 31.16172 -90.24818 35701 ft 428 kts 349°
2026-04-28 10:25 31.19150 -90.25024 36229 ft 426 kts 349°
2026-04-28 10:25 31.22067 -90.25229 36741 ft 425 kts 349°
2026-04-28 10:26 31.25049 -90.25438 37112 ft 426 kts 349°
2026-04-28 10:26 31.27983 -90.25648 37549 ft 425 kts 350°
2026-04-28 10:26 31.30965 -90.25294 37845 ft 447 kts
2026-04-28 10:26 31.33818 -90.23699 38296 ft 463 kts 23°
2026-04-28 10:27 31.36609 -90.21770 38718 ft 459 kts 21°
2026-04-28 10:27 31.39385 -90.19923 39055 ft 460 kts 21°
2026-04-28 10:27 31.42142 -90.18095 39337 ft 462 kts 21°
2026-04-28 10:27 31.44957 -90.16228 39695 ft 462 kts 21°
2026-04-28 10:28 31.47741 -90.14381 39910 ft 465 kts 21°
2026-04-28 10:28 31.50559 -90.12511 40299 ft 464 kts 21°
2026-04-28 10:28 31.53367 -90.10648 40563 ft 466 kts 22°
2026-04-28 10:29 31.59015 -90.06888 41183 ft 466 kts 22°
2026-04-28 10:29 31.61832 -90.05016 41404 ft 468 kts 22°
2026-04-28 10:29 31.64644 -90.03143 41645 ft 470 kts 22°
2026-04-28 10:29 31.67484 -90.01251 41943 ft 470 kts 22°
2026-04-28 10:30 31.70360 -89.99332 42236 ft 470 kts 22°
2026-04-28 10:30 31.73170 -89.97456 42532 ft 470 kts 22°
2026-04-28 10:30 31.76015 -89.95559 42818 ft 471 kts 22°
2026-04-28 10:30 31.78861 -89.93652 43077 ft 471 kts 22°
2026-04-28 10:31 31.81727 -89.91738 43368 ft 471 kts 23°
2026-04-28 10:31 31.84564 -89.89838 43603 ft 471 kts 22°
2026-04-28 10:31 31.87407 -89.87933 43846 ft 472 kts 22°
2026-04-28 10:31 31.90249 -89.86028 44172 ft 471 kts 23°
2026-04-28 10:32 31.93087 -89.84122 44386 ft 471 kts 23°
2026-04-28 10:32 31.95964 -89.82196 44572 ft 472 kts 23°
2026-04-28 10:32 31.98796 -89.80290 44781 ft 473 kts 23°
2026-04-28 10:32 32.01646 -89.78376 45006 ft 473 kts 23°
2026-04-28 10:33 32.04496 -89.76455 45173 ft 475 kts 23°
2026-04-28 10:33 32.07378 -89.74518 45435 ft 474 kts 23°
2026-04-28 10:33 32.10224 -89.72598 45683 ft 474 kts 23°
2026-04-28 10:33 32.13105 -89.70658 45915 ft 474 kts 23°
2026-04-28 10:34 32.15961 -89.68729 46164 ft 473 kts 23°
2026-04-28 10:34 32.18791 -89.66821 46429 ft 472 kts 23°
2026-04-28 10:34 32.21656 -89.64883 46609 ft 473 kts 23°
2026-04-28 10:34 32.24517 -89.62950 46838 ft 473 kts 23°
2026-04-28 10:35 32.27339 -89.61038 47159 ft 471 kts 23°
2026-04-28 10:35 32.30185 -89.59113 47345 ft 471 kts 23°
2026-04-28 10:35 32.33022 -89.57191 47586 ft 470 kts 23°
2026-04-28 10:35 32.35868 -89.55259 47801 ft 470 kts 23°
2026-04-28 10:36 32.38699 -89.53339 47995 ft 470 kts 23°
2026-04-28 10:36 32.41506 -89.51435 48199 ft 469 kts 23°
2026-04-28 10:36 32.44357 -89.49494 48422 ft 469 kts 23°
2026-04-28 10:36 32.47160 -89.47588 48624 ft 468 kts 23°
2026-04-28 10:37 32.49993 -89.45660 48837 ft 468 kts 23°
2026-04-28 10:37 32.52784 -89.43760 49014 ft 467 kts 23°
2026-04-28 10:37 32.55588 -89.41849 49063 ft 469 kts 23°
2026-04-28 10:38 32.61293 -89.37929 49069 ft 478 kts 27°
2026-04-28 10:38 32.63769 -89.35266 49120 ft 495 kts 47°
2026-04-28 10:38 32.65575 -89.31746 49111 ft 505 kts 59°
2026-04-28 10:39 32.68852 -89.24377 49088 ft 509 kts 58°
2026-04-28 10:39 32.72212 -89.16933 49082 ft 514 kts 57°
2026-04-28 10:40 32.75584 -89.09449 49069 ft 518 kts 58°
2026-04-28 10:40 32.78996 -89.01864 49083 ft 523 kts 58°
2026-04-28 10:41 32.82416 -88.94234 49086 ft 528 kts 58°
2026-04-28 10:41 32.85874 -88.86507 49087 ft 532 kts 58°
2026-04-28 10:42 32.89330 -88.78771 49072 ft 536 kts 58°
2026-04-28 10:42 32.92839 -88.70895 49071 ft 539 kts 58°
2026-04-28 10:43 32.96325 -88.63053 49070 ft 541 kts 58°
2026-04-28 10:43 32.99840 -88.55140 49072 ft 543 kts 58°
2026-04-28 10:44 33.03368 -88.47162 49082 ft 544 kts 58°
2026-04-28 10:44 33.06871 -88.39238 49124 ft 546 kts 58°
2026-04-28 10:45 33.10408 -88.31210 49077 ft 547 kts 58°
2026-04-28 10:45 33.13939 -88.23183 49070 ft 548 kts 58°
2026-04-28 10:46 33.17466 -88.15144 49070 ft 548 kts 58°
2026-04-28 10:46 33.20996 -88.07079 49079 ft 548 kts 58°
2026-04-28 10:47 33.24498 -87.99062 49098 ft 549 kts 58°
2026-04-28 10:47 33.28008 -87.91003 49081 ft 547 kts 58°
2026-04-28 10:48 33.31533 -87.82896 49089 ft 548 kts 58°
2026-04-28 10:48 33.35023 -87.74850 49098 ft 548 kts 58°
2026-04-28 10:49 33.38512 -87.66791 49068 ft 547 kts 58°
2026-04-28 10:49 33.42490 -87.59170 49113 ft 539 kts 48°
2026-04-28 10:50 33.46901 -87.51901 49091 ft 540 kts 49°
2026-04-28 10:50 33.51265 -87.44653 49111 ft 541 kts 49°
2026-04-28 10:51 33.55669 -87.37316 49101 ft 542 kts 49°
2026-04-28 10:51 33.60035 -87.30032 49093 ft 542 kts 50°
2026-04-28 10:52 33.64424 -87.22692 49097 ft 542 kts 50°
2026-04-28 10:52 33.68801 -87.15359 49090 ft 541 kts 50°
2026-04-28 10:53 33.73166 -87.08028 49092 ft 541 kts 50°
2026-04-28 10:53 33.77505 -87.00733 49102 ft 541 kts 50°
2026-04-28 10:54 33.81885 -86.93347 49104 ft 541 kts 50°
2026-04-28 10:54 33.86212 -86.86037 49102 ft 541 kts 50°
2026-04-28 10:55 33.90554 -86.78691 49101 ft 541 kts 50°
2026-04-28 10:55 33.94912 -86.71301 49103 ft 541 kts 50°
2026-04-28 10:56 33.99234 -86.63960 49100 ft 541 kts 50°
2026-04-28 10:56 34.03581 -86.56556 49104 ft 541 kts 50°
2026-04-28 10:57 34.07895 -86.49200 49117 ft 540 kts 50°
2026-04-28 10:57 34.12248 -86.41773 49113 ft 540 kts 50°
2026-04-28 10:58 34.16541 -86.34428 49102 ft 540 kts 51°
2026-04-28 10:58 34.20890 -86.26977 49111 ft 540 kts 51°
2026-04-28 10:59 34.25169 -86.19624 49100 ft 539 kts 51°
2026-04-28 10:59 34.29481 -86.12209 49105 ft 539 kts 51°
2026-04-28 11:00 34.33763 -86.04826 49105 ft 539 kts 51°
2026-04-28 11:00 34.38053 -85.97409 49117 ft 539 kts 51°
2026-04-28 11:01 34.42338 -85.89993 49109 ft 539 kts 51°
2026-04-28 11:01 34.46609 -85.82580 49120 ft 539 kts 51°
2026-04-28 11:02 34.50876 -85.75163 49120 ft 539 kts 51°
2026-04-28 11:02 34.55163 -85.67694 49118 ft 540 kts 51°
2026-04-28 11:03 34.59427 -85.60250 49127 ft 540 kts 51°
2026-04-28 11:03 34.63679 -85.52808 49140 ft 540 kts 51°
2026-04-28 11:04 34.67937 -85.45342 49140 ft 540 kts 51°
2026-04-28 11:04 34.72214 -85.37831 49138 ft 540 kts 51°
2026-04-28 11:05 34.76459 -85.30358 49136 ft 540 kts 51°
2026-04-28 11:05 34.81247 -85.23478 49183 ft 530 kts 39°
2026-04-28 11:06 34.86487 -85.17133 49154 ft 532 kts 40°
2026-04-28 11:06 34.91704 -85.10775 49156 ft 532 kts 40°
2026-04-28 11:07 34.96936 -85.04378 49160 ft 533 kts 40°
2026-04-28 11:07 35.02148 -84.98000 49159 ft 533 kts 40°
2026-04-28 11:08 35.07356 -84.91612 49169 ft 533 kts 40°
2026-04-28 11:08 35.12556 -84.85225 49165 ft 534 kts 40°
2026-04-28 11:09 35.17775 -84.78796 49179 ft 534 kts 40°
2026-04-28 11:09 35.22895 -84.72471 49157 ft 505 kts 40°
2026-04-28 11:09 35.25337 -84.69449 48404 ft 493 kts 40°
2026-04-28 11:10 35.27695 -84.66523 46962 ft 493 kts 39°
2026-04-28 11:10 35.30114 -84.63522 45143 ft 499 kts 38°
2026-04-28 11:10 35.32545 -84.60541 43815 ft 500 kts 38°
2026-04-28 11:10 35.34967 -84.57564 42785 ft 493 kts 40°
2026-04-28 11:11 35.37333 -84.54641 41611 ft 484 kts 41°
2026-04-28 11:11 35.39655 -84.51752 40523 ft 472 kts 42°
2026-04-28 11:11 35.41941 -84.48906 39388 ft 460 kts 43°
2026-04-28 11:11 35.44153 -84.46137 37973 ft 455 kts 43°
2026-04-28 11:12 35.46309 -84.43442 37075 ft 449 kts 43°
2026-04-28 11:12 35.48490 -84.40720 36076 ft 445 kts 42°
2026-04-28 11:12 35.50637 -84.38039 35116 ft 443 kts 42°
2026-04-28 11:12 35.52836 -84.35298 34664 ft 454 kts 42°
2026-04-28 11:13 35.55072 -84.32502 34215 ft 460 kts 43°
2026-04-28 11:13 35.57316 -84.29699 33811 ft 465 kts 43°
2026-04-28 11:13 35.59585 -84.26857 33429 ft 470 kts 43°
2026-04-28 11:13 35.61873 -84.23993 33068 ft 473 kts 43°
2026-04-28 11:14 35.64171 -84.21109 32540 ft 473 kts 43°
2026-04-28 11:14 35.66467 -84.18228 31989 ft 472 kts 43°
2026-04-28 11:14 35.68748 -84.15361 31396 ft 470 kts 42°
2026-04-28 11:14 35.70997 -84.12535 30711 ft 465 kts 42°
2026-04-28 11:15 35.73261 -84.09686 29915 ft 459 kts 42°
2026-04-28 11:15 35.75452 -84.06928 28984 ft 454 kts 41°
2026-04-28 11:15 35.77642 -84.04166 28120 ft 447 kts 41°
2026-04-28 11:15 35.79794 -84.01457 27230 ft 440 kts 41°
2026-04-28 11:16 35.81910 -83.98789 26269 ft 437 kts 41°
2026-04-28 11:16 35.84010 -83.96126 25415 ft 431 kts 41°
2026-04-28 11:16 35.86092 -83.93498 24526 ft 426 kts 42°
2026-04-28 11:16 35.88143 -83.90909 23514 ft 423 kts 40°
2026-04-28 11:17 35.90162 -83.88339 22782 ft 411 kts 41°
2026-04-28 11:17 35.92111 -83.85877 22161 ft 398 kts 40°
2026-04-28 11:17 35.93992 -83.83484 21839 ft 379 kts 40°
2026-04-28 11:17 35.95772 -83.81229 21501 ft 358 kts 40°
2026-04-28 11:18 35.97465 -83.79078 21005 ft 339 kts 40°
2026-04-28 11:18 35.99001 -83.76963 20359 ft 334 kts 46°
2026-04-28 11:18 36.00389 -83.74706 19613 ft 329 kts 47°
2026-04-28 11:18 36.01754 -83.72482 18870 ft 323 kts 46°
2026-04-28 11:19 36.03071 -83.70290 18174 ft 319 kts 46°
2026-04-28 11:19 36.04364 -83.68126 17486 ft 313 kts 47°
2026-04-28 11:19 36.05652 -83.65976 16822 ft 303 kts 46°
2026-04-28 11:19 36.06709 -83.63818 16176 ft 300 kts 66°
2026-04-28 11:20 36.06845 -83.61279 15552 ft 305 kts 101°
2026-04-28 11:20 36.05946 -83.58975 14815 ft 296 kts 136°
2026-04-28 11:20 36.04325 -83.57647 14115 ft 274 kts 170°
2026-04-28 11:20 36.02577 -83.57639 13563 ft 236 kts 208°
2026-04-28 11:21 36.01412 -83.58755 13157 ft 200 kts 248°
2026-04-28 11:21 36.01037 -83.60331 12828 ft 192 kts 263°
2026-04-28 11:21 36.00736 -83.61925 12726 ft 191 kts 261°
2026-04-28 11:21 36.00431 -83.63519 12643 ft 194 kts 261°
2026-04-28 11:22 36.00115 -83.65174 12538 ft 200 kts 261°
2026-04-28 11:22 35.99794 -83.66857 12448 ft 205 kts 261°
2026-04-28 11:22 35.99462 -83.68595 12352 ft 208 kts 261°
2026-04-28 11:22 35.99132 -83.70325 12259 ft 211 kts 261°
2026-04-28 11:23 35.98798 -83.72054 12134 ft 199 kts 261°
2026-04-28 11:23 35.98484 -83.73673 12021 ft 190 kts 261°
2026-04-28 11:23 35.98186 -83.75230 11914 ft 185 kts 261°
2026-04-28 11:23 35.97884 -83.76804 11540 ft 192 kts 261°
2026-04-28 11:24 35.97492 -83.78374 10926 ft 200 kts 250°
2026-04-28 11:24 35.96727 -83.79827 10271 ft 208 kts 239°
2026-04-28 11:24 35.95808 -83.81205 9561 ft 211 kts 236°
2026-04-28 11:24 35.94852 -83.82526 8831 ft 205 kts 234°
2026-04-28 11:25 35.93884 -83.83766 8096 ft 202 kts 228°
2026-04-28 11:25 35.92819 -83.84855 7360 ft 197 kts 227°
2026-04-28 11:25 35.91846 -83.85975 6631 ft 191 kts 229°
2026-04-28 11:25 35.90911 -83.87083 5903 ft 186 kts 229°
2026-04-28 11:26 35.90015 -83.88188 5171 ft 183 kts 227°
2026-04-28 11:26 35.89137 -83.89268 4442 ft 174 kts 225°
2026-04-28 11:26 35.88321 -83.90263 3707 ft 158 kts 224°
2026-04-28 11:26 35.87615 -83.91129 3136 ft 138 kts 222°
2026-04-28 11:27 35.86955 -83.91924 2495 ft 133 kts 222°
2026-04-28 11:27 35.86324 -83.92683 2220 ft 129 kts 223°
2026-04-28 11:27 35.85675 -83.93475 2101 ft 134 kts 224°
2026-04-28 11:27 35.85001 -83.94299 1922 ft 136 kts 224°
2026-04-28 11:28 35.84358 -83.95089 1715 ft 125 kts 224°
2026-04-28 11:28 35.83759 -83.95821 1543 ft 116 kts 224°
2026-04-28 11:28 35.83187 -83.96517 1405 ft 119 kts 224°
2026-04-28 11:28 35.82585 -83.97255 1251 ft 124 kts 224°
2026-04-28 11:29 35.81972 -83.98003 1086 ft 123 kts 225°
2026-04-28 11:29 35.81385 -83.98714 963 ft 112 kts 224°
2026-04-28 11:29 35.80934 -83.99267 961 ft 56 kts 226°
2026-04-28 11:29 35.80753 -83.99491 955 ft 19 kts 224°
2026-04-28 11:30 35.80646 -83.99493 953 ft 9 kts 141°
2026-04-28 11:30 35.80641 -83.99489 953 ft 0 kts 141°
2026-04-28 11:31 35.80638 -83.99484 952 ft 2 kts 118°
2026-04-28 11:32 35.80665 -83.99432 954 ft 13 kts 45°
2026-04-28 11:32 35.80733 -83.99350 955 ft 13 kts 44°
2026-04-28 11:32 35.80801 -83.99268 956 ft 13 kts 44°
2026-04-28 11:32 35.80867 -83.99188 958 ft 12 kts 44°
2026-04-28 11:33 35.80931 -83.99110 959 ft 12 kts 48°
2026-04-28 11:33 35.80993 -83.99030 960 ft 12 kts 43°
2026-04-28 11:33 35.81057 -83.98955 960 ft 13 kts 43°
2026-04-28 11:33 35.81054 -83.98846 958 ft 14 kts 108°
2026-04-28 11:34 35.81085 -83.98809 958 ft 6 kts 11°
2026-04-28 11:34 35.81124 -83.98782 958 ft 7 kts 48°
2026-04-28 11:34 35.81159 -83.98720 956 ft 10 kts 56°
2026-04-28 11:34 35.81207 -83.98631 955 ft 12 kts 56°
2026-04-28 11:35 35.81276 -83.98565 955 ft 12 kts 43°
2026-04-28 11:35 35.81325 -83.98468 952 ft 15 kts 101°
2026-04-28 11:35 35.81345 -83.98415 951 ft 5 kts 267°
2026-04-28 11:35 35.81334 -83.98434 951 ft 0 kts 220°
2026-04-28 11:36 35.81331 -83.98436 951 ft 0 kts 220°